| time (UTC) | temp F | wind direction | speed knots | gust knots | rain 1hr in | rain 24hr in | rain mn in | humidity % | barometer mb |
| 20260904173037 | 73 | 307 | 2.6 | 11.3 | 0.00 | 0.00 | 0.00 | 64 | 1014.6 |
| 20260904171511 | 73 | 307 | 6.1 | 10.4 | 0.00 | 0.00 | 0.00 | 61 | 1014.5 |
| 20260904170014 | 73 | 348 | 7.8 | 13.9 | 0.00 | 0.00 | 0.00 | 62 | 1014.6 |
| 20260904164523 | 73 | 5 | 5.2 | 11.3 | 0.00 | 0.00 | 0.00 | 64 | 1014.7 |
| 20260904163026 | 73 | 345 | 4.3 | 10.4 | 0.00 | 0.00 | 0.00 | 63 | 1015.0 |
| 20260904161509 | 72 | 323 | 4.3 | 12.2 | 0.00 | 0.00 | 0.00 | 65 | 1014.7 |
| 20260904160016 | 73 | 63 | 3.5 | 9.6 | 0.00 | 0.00 | 0.00 | 65 | 1014.8 |
| 20260904154518 | 72 | 28 | 4.3 | 11.3 | 0.00 | 0.00 | 0.00 | 69 | 1014.9 |
| 20260904153028 | 72 | 319 | 3.5 | 10.4 | 0.00 | 0.00 | 0.00 | 68 | 1014.6 |
| 20260904151533 | 72 | 53 | 5.2 | 9.6 | 0.00 | 0.00 | 0.00 | 68 | 1014.6 |
| 20260904150008 | 72 | 15 | 3.5 | 9.6 | 0.00 | 0.00 | 0.00 | 72 | 1014.6 |
| 20260904144520 | 72 | 342 | 3.5 | 7.0 | 0.00 | 0.00 | 0.00 | 73 | 1014.6 |
| 20260904143033 | 71 | 323 | 2.6 | 11.3 | 0.00 | 0.00 | 0.00 | 73 | 1014.7 |
| 20260904141529 | 71 | 304 | 3.5 | 8.7 | 0.00 | 0.00 | 0.00 | 76 | 1014.6 |
| 20260904140031 | 70 | 360 | 5.2 | 7.8 | 0.00 | 0.00 | 0.00 | 77 | 1014.9 |
| 20260904134517 | 70 | 28 | 2.6 | 7.0 | 0.00 | 0.00 | 0.00 | 80 | 1014.9 |
| 20260904133019 | 69 | 282 | 1.7 | 7.0 | 0.00 | 0.00 | 0.00 | 85 | 1015.1 |
| 20260904131525 | 68 | 312 | 1.7 | 6.1 | 0.00 | 0.00 | 0.00 | 90 | 1014.7 |
| 20260904130031 | 67 | 26 | 1.7 | 6.1 | 0.00 | 0.00 | 0.00 | 95 | 1014.6 |
| 20260904124514 | 65 | 346 | 1.7 | 4.3 | 0.00 | 0.00 | 0.00 | 98 | 1014.6 |
| 20260904123018 | 64 | 325 | 0.0 | 2.6 | 0.00 | 0.00 | 0.00 | 98 | 1014.7 |
| 20260904121523 | 63 | 308 | 0.9 | 2.6 | 0.00 | 0.00 | 0.00 | 98 | 1015.0 |
| 20260904120029 | 62 | 303 | 0.0 | 1.7 | 0.00 | 0.00 | 0.00 | 98 | 1014.7 |
| 20260904114530 | 61 | 338 | 0.0 | 0.0 | 0.00 | 0.00 | 0.00 | 98 | 1014.6 |
| 20260904113014 | 60 | 338 | 0.0 | 0.0 | 0.00 | 0.00 | 0.00 | 99 | 1014.6 |
| 20260904111523 | 59 | 338 | 0.0 | 0.9 | 0.00 | 0.00 | 0.00 | 99 | 1014.5 |
| 20260904110026 | 58 | 338 | 0.0 | 0.9 | 0.00 | 0.00 | 0.00 | 98 | 1014.5 |
| 20260904104531 | 58 | 338 | 0.0 | 0.9 | 0.00 | 0.00 | 0.00 | 98 | 1014.3 |
| 20260904103032 | 58 | 338 | 0.0 | 0.0 | 0.00 | 0.00 | 0.00 | 98 | 1014.3 |
| 20260904101516 | 58 | 338 | 0.0 | 0.0 | 0.00 | 0.00 | 0.00 | 98 | 1014.1 |
| 20260904100023 | 58 | 338 | 0.0 | 0.9 | 0.00 | 0.00 | 0.00 | 98 | 1013.8 |
| 20260904094545 | 59 | 338 | 0.0 | 0.9 | 0.00 | 0.00 | 0.00 | 98 | 1013.8 |
| 20260904093035 | 59 | 338 | 0.0 | 0.0 | 0.00 | 0.00 | 0.00 | 97 | 1013.6 |
| 20260904091537 | 59 | 338 | 0.0 | 0.0 | 0.00 | 0.00 | 0.00 | 98 | 1013.7 |
| 20260904090040 | 59 | 338 | 0.0 | 1.7 | 0.00 | 0.00 | 0.00 | 97 | 1013.4 |
| 20260904084530 | 59 | 338 | 0.0 | 0.9 | 0.00 | 0.00 | 0.00 | 98 | 1013.3 |
| 20260904083103 | 60 | 338 | 0.0 | 0.0 | 0.00 | 0.00 | 0.00 | 98 | 1013.1 |
| 20260904081511 | 60 | 338 | 0.0 | 0.9 | 0.00 | 0.00 | 0.00 | 98 | 1013.1 |
| 20260904080019 | 60 | 338 | 0.0 | 1.7 | 0.00 | 0.00 | 0.00 | 97 | 1013.0 |
| 20260904074531 | 60 | 338 | 0.0 | 1.7 | 0.00 | 0.00 | 0.00 | 97 | 1013.1 |
| 20260904073003 | 61 | 338 | 0.0 | 2.6 | 0.00 | 0.00 | 0.00 | 97 | 1013.0 |
| 20260904071508 | 61 | 338 | 0.0 | 0.9 | 0.00 | 0.00 | 0.00 | 97 | 1013.0 |
| 20260904070014 | 61 | 338 | 0.0 | 0.0 | 0.00 | 0.00 | 0.00 | 97 | 1012.9 |
| 20260904064520 | 62 | 338 | 0.0 | 2.6 | 0.00 | 0.00 | 0.00 | 97 | 1012.8 |
| 20260904063032 | 62 | 348 | 0.0 | 0.9 | 0.00 | 0.00 | 0.00 | 97 | 1012.9 |
| 20260904061509 | 62 | 348 | 0.0 | 0.9 | 0.00 | 0.00 | 0.00 | 97 | 1013.2 |
| 20260904060016 | 63 | 348 | 0.0 | 2.6 | 0.00 | 0.00 | 0.00 | 98 | 1013.2 |
| 20260904054518 | 63 | 282 | 0.0 | 1.7 | 0.00 | 0.00 | 0.00 | 97 | 1013.4 |
| 20260904053041 | 62 | 282 | 0.0 | 1.7 | 0.00 | 0.00 | 0.00 | 97 | 1013.5 |
| 20260904051537 | 62 | 282 | 0.0 | 0.9 | 0.00 | 0.00 | 0.00 | 97 | 1013.6 |
| 20260904050006 | 62 | 282 | 0.0 | 0.0 | 0.00 | 0.00 | 0.00 | 97 | 1013.5 |
| 20260904044520 | 62 | 282 | 0.0 | 0.0 | 0.00 | 0.00 | 0.00 | 97 | 1013.6 |
| 20260904043032 | 62 | 282 | 0.0 | 0.9 | 0.00 | 0.00 | 0.00 | 97 | 1013.4 |
| 20260904041527 | 62 | 282 | 0.0 | 0.0 | 0.00 | 0.00 | 0.00 | 96 | 1013.5 |
| 20260904040009 | 62 | 282 | 0.0 | 0.0 | 0.00 | 0.00 | 0.00 | 97 | 1013.4 |
| 20260904034511 | 62 | 282 | 0.0 | 0.0 | 0.00 | 0.00 | 0.00 | 96 | 1013.4 |
| 20260904033019 | 62 | 282 | 0.0 | 0.0 | 0.00 | 0.00 | 0.00 | 96 | 1013.5 |
| 20260904031535 | 63 | 282 | 0.0 | 1.7 | 0.00 | 0.00 | 0.00 | 96 | 1013.5 |
| 20260904030030 | 63 | 208 | 0.0 | 2.6 | 0.00 | 0.00 | 0.00 | 96 | 1013.5 |
| 20260904024508 | 63 | 140 | 0.0 | 1.7 | 0.00 | 0.00 | 0.00 | 96 | 1013.5 |
| 20260904023014 | 63 | 40 | 0.0 | 0.9 | 0.00 | 0.00 | 0.00 | 95 | 1013.5 |
| 20260904021525 | 64 | 40 | 0.0 | 0.9 | 0.00 | 0.00 | 0.00 | 95 | 1013.7 |
| 20260904020028 | 64 | 40 | 0.0 | 0.0 | 0.00 | 0.00 | 0.00 | 95 | 1013.7 |
| 20260904014533 | 64 | 40 | 0.0 | 0.9 | 0.00 | 0.01 | 0.00 | 94 | 1013.6 |
| 20260904013012 | 65 | 40 | 0.0 | 0.9 | 0.00 | 0.03 | 0.00 | 94 | 1013.7 |
| 20260904011518 | 65 | 40 | 0.0 | 0.0 | 0.00 | 0.05 | 0.00 | 93 | 1013.6 |
| 20260904010026 | 66 | 40 | 0.0 | 0.0 | 0.00 | 0.06 | 0.00 | 93 | 1013.8 |
| 20260904004534 | 66 | 40 | 0.0 | 0.0 | 0.00 | 0.08 | 0.00 | 92 | 1013.8 |
| 20260904003033 | 66 | 40 | 0.0 | 0.9 | 0.00 | 0.11 | 0.00 | 92 | 1013.6 |
| 20260904001516 | 67 | 40 | 0.0 | 0.9 | 0.00 | 0.13 | 0.00 | 91 | 1013.4 |
| 20260904000024 | 68 | 40 | 0.0 | 0.0 | 0.00 | 0.14 | 0.00 | 88 | 1013.5 |
| 20260903234529 | 68 | 40 | 0.0 | 0.0 | 0.00 | 0.14 | 0.00 | 87 | 1013.4 |
| 20260903233031 | 69 | 40 | 0.0 | 0.0 | 0.00 | 0.14 | 0.00 | 85 | 1013.3 |
| 20260903231512 | 71 | 40 | 0.0 | 0.0 | 0.00 | 0.14 | 0.00 | 83 | 1013.2 |
| 20260903230034 | 72 | 40 | 0.0 | 0.0 | 0.00 | 0.14 | 0.00 | 82 | 1013.1 |
| 20260903224533 | 73 | 40 | 0.0 | 0.0 | 0.00 | 0.14 | 0.00 | 80 | 1013.0 |
| 20260903223031 | 74 | 40 | 0.0 | 2.6 | 0.00 | 0.14 | 0.00 | 73 | 1013.1 |
| 20260903221512 | 74 | 26 | 0.0 | 2.6 | 0.00 | 0.14 | 0.00 | 71 | 1013.2 |
| 20260903220025 | 75 | 58 | 0.9 | 2.6 | 0.00 | 0.14 | 0.00 | 70 | 1013.2 |
| 20260903214530 | 76 | 61 | 0.0 | 2.6 | 0.00 | 0.14 | 0.00 | 70 | 1013.1 |
| 20260903213041 | 76 | 90 | 0.9 | 3.5 | 0.00 | 0.14 | 0.00 | 68 | 1013.0 |
| 20260903211523 | 76 | 30 | 1.7 | 4.3 | 0.00 | 0.14 | 0.00 | 66 | 1013.2 |
| 20260903210018 | 77 | 52 | 1.7 | 7.8 | 0.00 | 0.14 | 0.00 | 62 | 1013.3 |
| 20260903204519 | 77 | 302 | 2.6 | 7.8 | 0.00 | 0.14 | 0.00 | 64 | 1013.5 |
| 20260903203027 | 77 | 338 | 3.5 | 9.6 | 0.00 | 0.14 | 0.00 | 60 | 1013.5 |
| 20260903201535 | 78 | 322 | 1.7 | 8.7 | 0.00 | 0.14 | 0.00 | 63 | 1013.5 |
| 20260903200013 | 79 | 303 | 4.3 | 8.7 | 0.00 | 0.14 | 0.00 | 61 | 1013.5 |
| 20260903194523 | 79 | 308 | 2.6 | 7.8 | 0.00 | 0.14 | 0.00 | 61 | 1013.5 |
| 20260903193025 | 78 | 5 | 3.5 | 7.8 | 0.00 | 0.14 | 0.00 | 63 | 1013.7 |
| 20260903191528 | 78 | 292 | 0.9 | 6.1 | 0.00 | 0.14 | 0.00 | 62 | 1013.7 |
| 20260903190030 | 78 | 306 | 3.5 | 7.8 | 0.00 | 0.14 | 0.00 | 62 | 1013.9 |
| 20260903184515 | 78 | 307 | 3.5 | 8.7 | 0.00 | 0.14 | 0.00 | 62 | 1014.0 |
| 20260903183019 | 78 | 305 | 4.3 | 12.2 | 0.00 | 0.14 | 0.00 | 63 | 1014.0 |
| 20260903181532 | 78 | 360 | 4.3 | 9.6 | 0.00 | 0.14 | 0.00 | 62 | 1014.0 |
| 20260903180040 | 77 | 17 | 1.7 | 9.6 | 0.00 | 0.14 | 0.00 | 69 | 1013.9 |
| 20260903174533 | 78 | 335 | 1.7 | 7.0 | 0.00 | 0.14 | 0.00 | 64 | 1013.9 |